Вернуться в каталог

COSMOS 2251 DEB

АктивенLEO
NORAD 47045·DEBRIS·🇷🇺 Russia

Запущен Jun 16, 1993 с Plesetsk Cosmodrome

Loading…

Ближайшие Пролёты (ближайшие 24 часа)

TLE

УстаревающийSource: Space-Track

Эпоха: Sep 10, 2026, 02:19 UTC

1 47045U 93036BWZ 26253.09704366  .00000094  00000-0  38710-4 0  9990
2 47045  74.0606   9.2851 0028051  82.5580  92.7421 14.39019571117086

Отслеживайте COSMOS 2251 DEB в реальном времени с AllMySat

Download on the App Store